Showing default

DUTHSAT-2, 64530

Orbit data source: Space-Track

DUTHSAT-2, 64530 is a payload satellite owned by DUTH (GR) in SSO that was launched on Mon, 23 Jun 2025 UTC via an FALCON 9 launch vehicle from the Air Force Western Test Range (AFWTR). Payload-class satellites include a variety of spacecraft equipped with specific instruments for various scientific and technological missions. These include communications satellites like Starlink; space stations such as the ISS; scientific satellites like the Hubble; Earth observation satellites from companies like Planet Labs, Umbra, and HawkEye 360; GPS; miniature CubeSats for education and research; and military/defense satellites.

Loading next visibility...
Identifier
64530, 2025-135C
Orbit
SSO
Country
Flag of UnknownUnknown / GREC
Related business
Manufacturer
DUTH
Mission
Operational Amateur Science
Bus & Motor
CUBESAT 6U, Unknown motor
Mass
10 kg wet, 10 kg dry
Launch date (UTC)
2025-06-23 (7 months ago)
Launch vehicle
FALCON 9
Launch site
Air Force Western Test Range (AFWTR)
Object type
Payload
Rocket body
Debris
Shape & HBR
Box, 0.1 m
Radar Cross Section
0.080 m², Medium (>0.1 m² and < 1m²)

Expand to show TLE details & history
Last TLE update: 12 hours ago

TLE from 12 hours ago
0 DUTHSAT-2
1 64530U 25135C   26035.79924247  .00016766  00000-0  71063-3 0  9990
2 64530  97.4486 152.2417 0004196 297.8801  62.2011 15.23202358 34757
Epoch: 2026-02-04T19:10Z
TLE epoch observation values (Epoch: 2026-02-04T19:10:54.549Z)
Latitude
0.00004°
Longitude
89.55377°
Altitude
497.938 km
Speed
7.616 km/s
True Right ascension
10h 08m 58s
True Declination
0° 00' 00"
Sunlit
Object was in full shadow at epoch
Visualization orbit readout
Latitude
Unknown
Longitude
Unknown
Altitude
Unknown
Speed
Unknown
Apparent Right ascension
Unknown
Apparent Declination
Unknown
Sunlit
N/A
Visualization observer readout
Local Sidereal Time
09:14:57
Azimuth
Unknown
Elevation
Unknown
Doppler factor
Unknown
Orbital elements
Apogee altitude
496.035 km
Perigee altitude
490.269 km
Semi-major axis
6,871.289 km
Eccentricity
0.00042
Inclination
97.4486°
RAAN
152.2417°
Arg. of periapsis
297.8801°
True anomaly
62.24364°
Mean anomaly
62.2011°
Eccentric anomaly
62.22237°
Mean motion
3.81053 °/min
Orbital period
94.47 mins
BSTAR
0.00071063
Loading maneuver chart data...
Computing Atmospheric mass density...
Loading historical data...
Loading historical data...
Loading historical data...
Loading historical data...
Loading historical data...
Loading historical data...
Loading historical data...

Documentation

Showing up to 5 results
|